This is the latest recevied weather packets stored in our database for station/object KP4FJC. If no packets are shown the sender has not sent any weather packets the latest 10 day(s).
| Time | Temp. | Humidity | Pressure | Rain* | Wind** | Luminosity | Snow |
|---|---|---|---|---|---|---|---|
| 1778012565 | 32.78° C | 57% | 1016.8 hPa | 0 mm | - | 390 W/m² | - |
| 1778012262 | 31.67° C | 56% | 1016.6 hPa | 0 mm | - | 411 W/m² | - |
| 1778011960 | 31.67° C | 56% | 1016.6 hPa | 0 mm | - | 429 W/m² | - |
| 1778011658 | 32.22° C | 55% | 1016.4 hPa | 0 mm | - | 453 W/m² | - |
| 1778011355 | 32.78° C | 56% | 1016.4 hPa | 0 mm | - | 473 W/m² | - |
| 1778011050 | 32.78° C | 55% | 1016.7 hPa | 0 mm | - | 495 W/m² | - |
| 1778010748 | 31.67° C | 59% | 1016.6 hPa | 0 mm | - | 514 W/m² | - |
| 1778010445 | 31.67° C | 59% | 1016.6 hPa | 0 mm | - | 533 W/m² | - |
| 1778010141 | 32.22° C | 58% | 1016.7 hPa | 0 mm | - | 555 W/m² | - |
| 1778009837 | 31.67° C | 58% | 1016.7 hPa | 0 mm | - | 573 W/m² | - |
| 1778009535 | 31.67° C | 57% | 1016.8 hPa | 0 mm | - | 593 W/m² | - |
| 1778009233 | 32.22° C | 58% | 1016.8 hPa | 0 mm | - | 606 W/m² | - |
| 1778008929 | 31.67° C | 58% | 1016.7 hPa | 0 mm | - | 627 W/m² | - |
| 1778008628 | 32.22° C | 59% | 1016.8 hPa | 0 mm | - | 645 W/m² | - |
| 1778008326 | 32.22° C | 59% | 1016.9 hPa | 0 mm | - | 663 W/m² | - |
| 1778008022 | 32.22° C | 58% | 1016.7 hPa | 0 mm | - | 682 W/m² | - |
| 1778007716 | 32.78° C | 56% | 1017 hPa | 0 mm | - | 701 W/m² | - |
| 1778007413 | 32.78° C | 57% | 1016.9 hPa | 0 mm | - | 725 W/m² | - |
| 1778007110 | 32.78° C | 56% | 1017 hPa | 0 mm | - | 735 W/m² | - |
| 1778006806 | 32.78° C | 57% | 1017.1 hPa | 0 mm | - | 756 W/m² | - |
| 1778006503 | 32.22° C | 58% | 1017.3 hPa | 0 mm | - | 770 W/m² | - |
| 1778006200 | 32.22° C | 57% | 1017 hPa | 0 mm | - | 790 W/m² | - |
| 1778005898 | 31.67° C | 57% | 1017 hPa | 0 mm | - | 812 W/m² | - |
| 1778005593 | 32.78° C | 55% | 1017.3 hPa | 0 mm | - | 805 W/m² | - |
| 1778005291 | 32.78° C | 57% | 1017.1 hPa | 0 mm | - | 810 W/m² | - |
* Rain latest hour (hover to see other rain measurements)
** Current wind speed in m/s (hover to see current wind gust speed)